Total_Precipitation_Accumulation
0.01 0.01 0.02 0.04 0.15 0.38 0.63 0.56 0.66 0.66 0.68 0.61 0.62 0.70 0.79 0.90 1.13 1.94 1.27 0.66 0.47 0.50 0.47 0.53 0.53 0.54 0.58 0.60 0.68 0.81 0.85 0.77 0.79 0.89 1.12 1.14 1.15 1.20 1.22 1.25 1.35 1.37 1.36 1.21 1.15 1.20 1.24 1.29 1.27
0.02 0.02 0.04 0.06 0.23 0.61 0.66 0.58 0.65 0.66 0.58 0.49 0.56 0.69 0.67 0.65 0.61 0.64 0.75 0.61 0.46 0.42 0.49 0.48 0.50 0.56 0.56 0.59 0.61 0.76 0.85 0.82 0.81 0.85 1.06 1.17 1.22 1.25 1.24 1.29 1.42 1.59 1.61 1.54 1.36 1.30 1.31 1.31 1.25
0.02 0.04 0.07 0.08 0.27 0.55 0.66 0.54 0.57 0.56 0.49 0.51 0.58 0.67 0.74 0.78 0.71 0.64 0.61 0.42 0.49 0.44 0.51 0.57 0.55 0.59 0.56 0.58 0.66 0.78 0.92 0.94 0.92 0.96 1.09 1.32 1.36 1.32 1.32 1.38 1.37 1.55 1.67 1.68 1.57 1.54 1.46 1.41 1.29
0.03 0.05 0.07 0.13 0.27 0.39 0.49 0.49 0.59 0.66 0.58 0.58 0.58 0.74 0.85 0.75 0.71 0.67 0.59 0.51 0.47 0.49 0.55 0.52 0.53 0.56 0.57 0.64 0.74 0.86 1.07 1.08 1.04 1.08 1.18 1.37 1.41 1.37 1.39 1.50 1.45 1.45 1.49 1.57 1.61 1.65 1.61 1.57 1.35
0.05 0.06 0.09 0.19 0.28 0.32 0.44 0.52 0.68 0.75 0.62 0.61 0.65 0.89 1.03 0.94 0.86 0.82 0.73 0.66 0.54 0.54 0.62 0.56 0.58 0.60 0.64 0.68 0.77 0.96 1.09 1.12 1.12 1.19 1.29 1.46 1.44 1.40 1.47 1.59 1.63 1.63 1.62 1.65 1.62 1.63 1.58 1.64 1.55
0.06 0.07 0.14 0.26 0.30 0.32 0.38 0.51 0.57 0.66 0.63 0.62 0.73 1.12 1.48 1.48 1.40 1.27 1.13 0.87 0.69 0.61 0.71 0.73 0.74 0.72 0.77 0.80 0.80 0.95 1.07 1.11 1.21 1.34 1.39 1.50 1.57 1.56 1.59 1.67 1.78 1.81 1.76 1.68 1.57 1.48 1.42 1.60 1.60
0.08 0.13 0.15 0.23 0.33 0.37 0.40 0.54 0.63 0.68 0.69 0.75 0.93 1.19 1.51 1.67 1.75 1.63 1.47 1.19 1.12 1.04 1.08 1.07 0.95 0.86 0.87 0.93 0.92 0.97 1.03 1.04 1.16 1.34 1.34 1.37 1.55 1.65 1.62 1.63 1.75 1.84 1.71 1.60 1.47 1.44 1.35 1.49 1.55
0.07 0.10 0.13 0.20 0.32 0.41 0.45 0.63 0.64 0.63 0.74 0.86 1.08 1.35 1.75 1.68 1.51 1.67 1.73 1.66 1.61 1.68 1.66 1.29 1.10 1.04 1.05 1.05 1.08 1.12 1.10 1.07 1.13 1.25 1.37 1.45 1.54 1.60 1.70 1.66 1.71 1.80 1.66 1.56 1.49 1.49 1.46 1.50 1.64
0.08 0.10 0.14 0.22 0.33 0.41 0.39 0.57 0.56 0.50 0.59 0.77 1.04 1.19 1.37 1.34 1.34 1.67 1.88 2.17 2.29 2.11 1.93 1.64 1.36 1.31 1.28 1.16 1.08 1.23 1.22 1.17 1.21 1.30 1.36 1.47 1.65 1.85 1.92 1.70 1.75 1.74 1.72 1.67 1.66 1.64 1.63 1.72 1.79
0.06 0.08 0.13 0.19 0.22 0.31 0.40 0.51 0.49 0.55 0.63 0.77 0.89 1.14 1.36 1.35 1.63 1.83 2.02 2.49 2.42 2.30 2.09 2.00 1.85 1.65 1.61 1.34 1.48 1.69 1.54 1.49 1.41 1.56 1.56 1.72 2.04 2.20 2.03 2.22 2.24 2.16 2.06 2.00 2.02 2.01 1.91 1.84 1.75
0.06 0.07 0.12 0.18 0.18 0.25 0.40 0.49 0.49 0.63 0.86 1.14 1.21 1.24 1.33 1.41 1.72 1.97 2.18 2.54 2.67 2.44 2.12 2.13 2.10 2.11 2.15 2.14 1.96 1.97 1.97 2.00 1.91 2.06 1.99 2.17 2.32 2.27 2.36 2.62 2.61 2.50 2.36 2.27 2.36 2.25 1.90 1.87 2.00
0.09 0.11 0.15 0.16 0.19 0.29 0.46 0.57 0.77 0.85 1.01 1.27 1.36 1.34 1.52 1.64 1.79 1.92 2.17 2.54 2.81 2.72 2.53 2.63 2.45 2.42 2.53 2.73 2.63 2.25 2.16 2.17 2.08 2.34 2.30 2.45 2.63 2.64 2.82 2.93 2.78 2.84 2.82 2.84 2.82 2.74 2.39 2.31 2.28
0.11 0.12 0.16 0.15 0.24 0.35 0.52 0.61 0.75 0.77 0.67 0.97 1.23 1.42 1.66 1.64 1.81 1.95 2.30 2.88 3.16 3.12 2.98 3.14 3.08 3.04 3.06 3.28 3.25 2.67 2.57 2.74 2.98 3.05 2.83 2.81 2.81 2.88 3.16 3.16 3.10 3.10 3.23 3.19 3.08 2.90 2.89 2.90 2.71
0.09 0.11 0.14 0.17 0.22 0.31 0.45 0.49 0.63 0.85 0.79 0.92 1.11 1.41 1.69 1.88 2.16 2.49 2.79 3.25 3.54 3.59 3.42 3.40 3.42 3.53 3.42 3.42 3.43 3.40 3.16 3.24 3.44 3.47 3.40 3.36 3.38 3.46 3.62 3.59 3.45 3.31 3.43 3.43 3.38 3.22 3.28 3.27 3.23
0.11 0.12 0.18 0.24 0.28 0.30 0.35 0.57 0.74 0.92 1.01 1.11 1.23 1.44 1.74 2.02 2.30 2.64 3.13 3.44 3.47 3.47 3.42 3.52 3.50 3.74 3.86 3.83 3.65 3.70 3.72 3.82 3.98 3.96 3.78 3.67 3.73 4.06 4.14 4.14 3.81 3.59 3.64 3.89 3.93 3.83 3.79 3.51 3.42
0.16 0.20 0.25 0.29 0.31 0.36 0.36 0.71 0.91 0.79 0.90 1.19 1.37 1.49 1.66 1.87 2.25 2.62 3.05 3.32 3.43 3.78 3.83 3.82 3.79 3.93 4.23 4.26 4.11 4.08 4.01 4.32 4.40 4.35 4.23 3.96 3.93 4.13 4.29 4.27 4.09 3.98 3.93 4.21 4.40 4.37 4.31 4.11 4.02
0.23 0.28 0.32 0.35 0.32 0.38 0.43 0.75 0.94 0.89 0.89 1.16 1.54 1.77 1.77 1.98 2.37 2.76 3.10 3.43 3.59 3.75 3.99 3.98 4.09 4.32 4.38 4.49 4.41 4.50 4.64 4.57 4.45 4.39 4.42 4.37 4.33 4.47 4.58 4.47 4.46 4.51 4.60 4.59 4.34 4.53 4.39 4.38 4.30
0.27 0.29 0.34 0.38 0.38 0.39 0.49 0.69 0.89 0.99 1.17 1.30 1.53 1.83 2.00 2.00 2.19 2.52 2.98 3.46 3.67 3.75 3.79 3.95 4.05 4.27 4.48 4.69 4.70 4.76 4.89 4.94 5.05 5.12 5.10 4.88 4.87 4.85 5.18 5.15 5.04 5.04 5.03 4.84 4.75 4.81 4.56 4.40 4.31
0.25 0.33 0.38 0.41 0.39 0.48 0.58 0.69 0.92 1.09 1.30 1.35 1.44 1.67 1.89 2.07 2.25 2.58 2.95 3.29 3.82 3.91 3.82 3.93 4.15 4.37 4.51 4.81 4.93 5.22 5.54 5.75 5.92 5.86 5.63 5.65 5.58 5.67 5.76 5.58 5.45 5.31 5.28 5.20 5.16 5.03 4.82 4.54 4.47
0.26 0.41 0.45 0.43 0.40 0.50 0.68 0.85 1.05 1.23 1.31 1.28 1.44 1.63 1.81 2.22 2.59 2.81 2.98 3.42 3.94 4.17 4.22 4.28 4.47 4.81 5.02 5.31 5.77 6.07 6.37 6.63 6.83 6.85 6.38 6.10 5.95 5.85 5.75 5.85 5.81 5.65 5.53 5.38 5.20 5.09 4.91 4.53 4.45
0.20 0.30 0.39 0.45 0.48 0.57 0.79 1.16 1.36 1.47 1.52 1.67 1.89 2.05 2.14 2.38 2.77 2.88 2.95 3.37 3.73 3.98 4.16 4.37 4.62 5.09 5.64 6.03 6.45 6.79 7.02 7.07 6.88 6.57 6.50 6.30 6.10 5.96 5.78 5.69 5.52 5.43 5.30 5.23 5.09 4.89 4.72 4.49 4.35
0.20 0.22 0.33 0.39 0.55 0.68 0.83 1.51 1.87 1.82 1.85 2.10 2.31 2.32 2.38 2.50 2.70 2.84 2.98 3.28 3.63 3.93 4.11 4.47 5.02 5.74 6.27 6.67 7.21 7.72 7.85 7.57 7.21 6.76 6.33 6.08 5.84 5.53 5.29 5.22 5.15 5.02 4.67 4.50 4.37 4.34 4.20 4.07 3.88
0.18 0.18 0.27 0.34 0.44 0.64 0.88 1.41 2.27 2.30 2.29 2.47 2.63 2.41 2.40 2.32 2.39 2.65 2.81 3.04 3.54 3.84 4.08 4.44 5.05 5.81 6.52 7.31 7.92 8.34 8.20 7.81 7.35 6.67 6.10 5.65 5.29 4.94 4.65 4.55 4.45 4.23 3.83 3.49 3.41 3.60 3.64 3.64 3.55
0.15 0.19 0.27 0.34 0.47 0.77 0.83 1.27 2.09 2.39 2.54 2.63 2.52 2.27 2.18 2.10 2.13 2.27 2.48 2.84 3.35 3.64 3.82 4.18 4.83 5.61 6.28 6.87 7.36 7.62 7.48 7.27 6.71 6.03 5.42 5.02 4.73 4.40 4.01 3.66 3.46 3.21 3.02 2.84 2.84 2.94 3.01 3.25 3.35
0.18 0.28 0.60 0.82 0.96 0.98 0.77 1.14 1.88 2.12 2.22 2.14 2.07 2.11 1.95 2.01 1.99 2.03 2.20 2.49 2.91 3.07 3.41 3.81 4.26 4.94 5.39 5.71 6.07 6.27 6.35 6.14 5.80 5.31 4.85 4.42 3.96 3.62 3.30 2.98 2.88 2.74 2.64 2.57 2.59 2.64 2.61 2.73 2.91
0.21 0.27 0.69 1.05 1.08 1.07 1.04 1.53 2.08 2.02 1.90 1.77 1.74 1.79 1.81 1.88 1.96 2.01 2.18 2.38 2.65 2.84 3.01 3.16 3.44 3.85 4.03 4.08 4.32 4.60 4.64 4.60 4.46 4.19 3.82 3.53 3.18 2.81 2.59 2.38 2.22 2.20 2.27 2.21 2.31 2.36 2.39 2.39 2.44
0.22 0.23 0.35 0.67 0.77 1.18 1.48 1.95 2.42 2.14 2.00 1.92 1.87 1.72 1.68 1.69 1.80 1.99 2.10 2.14 2.18 2.23 2.31 2.41 2.59 2.76 2.84 2.93 3.03 3.19 3.22 3.21 3.16 3.03 2.78 2.57 2.42 2.14 1.98 1.90 1.87 1.84 1.90 2.03 2.09 2.04 2.07 2.19 2.21
0.19 0.26 0.42 0.76 1.22 1.49 1.74 2.40 2.97 2.73 2.29 1.96 1.74 1.54 1.50 1.58 1.69 1.87 1.99 1.97 1.98 1.91 1.98 2.06 2.16 2.23 2.24 2.31 2.33 2.29 2.34 2.35 2.36 2.23 2.11 2.05 1.97 1.84 1.79 1.73 1.67 1.62 1.61 1.65 1.75 1.81 1.85 1.90 2.01
0.28 0.35 0.52 0.79 0.98 1.49 2.01 2.77 2.80 2.96 2.76 2.25 1.90 1.74 1.66 1.58 1.67 1.85 1.85 1.81 1.80 1.77 1.81 1.87 1.87 1.87 1.85 1.83 1.88 1.89 1.83 1.86 1.94 1.94 1.82 1.80 1.74 1.61 1.57 1.51 1.42 1.38 1.37 1.41 1.52 1.56 1.61 1.67 1.77
0.27 0.34 0.54 1.05 1.19 1.25 1.95 2.97 2.70 2.93 3.00 2.67 2.36 2.18 2.08 1.82 1.76 1.79 1.74 1.69 1.62 1.64 1.67 1.74 1.69 1.64 1.69 1.61 1.56 1.59 1.64 1.63 1.68 1.67 1.57 1.55 1.59 1.51 1.49 1.39 1.29 1.21 1.20 1.24 1.29 1.31 1.34 1.48 1.54